Time,TemperatureF,DewpointF,PressureIn,WindDirection,WindDirectionDegrees,WindSpeedMPH,WindSpeedGustMPH,Humidity,HourlyPrecipIn,Conditions,Clouds,dailyrainin,SoftwareType,DateUTC
2013-02-03 00:04:00,39.7,32.2,30.08,North,-999,-999.0,-999.0,74,-99.99,,,-99.99,meteohub,2013-02-03 06:04:00,
2013-02-03 00:10:00,39.2,31.6,30.08,North,-999,-999.0,-999.0,74,-99.99,,,-99.99,meteohub,2013-02-03 06:10:00,
2013-02-03 00:17:00,38.7,31.5,30.08,North,-999,-999.0,-999.0,75,-99.99,,,-99.99,meteohub,2013-02-03 06:17:00,
2013-02-03 00:22:00,38.1,31.3,30.08,North,-999,-999.0,-999.0,76,-99.99,,,-99.99,meteohub,2013-02-03 06:22:00,
2013-02-03 00:27:00,37.8,31.3,30.09,North,-999,-999.0,-999.0,77,-99.99,,,-99.99,meteohub,2013-02-03 06:27:00,
2013-02-03 00:32:00,37.8,31.3,30.08,North,-999,-999.0,-999.0,77,-99.99,,,-99.99,meteohub,2013-02-03 06:32:00,
2013-02-03 00:37:00,37.2,30.9,30.09,North,-999,-999.0,-999.0,78,-99.99,,,-99.99,meteohub,2013-02-03 06:37:00,
2013-02-03 00:42:00,37.2,31.3,30.09,North,-999,-999.0,-999.0,79,-99.99,,,-99.99,meteohub,2013-02-03 06:42:00,
2013-02-03 00:47:00,37.4,31.5,30.09,North,-999,-999.0,-999.0,79,-99.99,,,-99.99,meteohub,2013-02-03 06:47:00,
2013-02-03 00:52:00,37.6,31.6,30.09,North,-999,-999.0,-999.0,79,-99.99,,,-99.99,meteohub,2013-02-03 06:52:00,
2013-02-03 00:57:00,37.8,31.5,30.09,North,-999,-999.0,-999.0,78,-99.99,,,-99.99,meteohub,2013-02-03 06:57:00,
2013-02-03 01:02:00,37.6,31.3,30.09,North,-999,-999.0,-999.0,78,-99.99,,,-99.99,meteohub,2013-02-03 07:02:00,
2013-02-03 01:07:00,37.4,31.5,30.09,North,-999,-999.0,-999.0,79,-99.99,,,-99.99,meteohub,2013-02-03 07:07:00,
2013-02-03 01:12:00,37.6,31.6,30.09,North,-999,-999.0,-999.0,79,-99.99,,,-99.99,meteohub,2013-02-03 07:12:00,
2013-02-03 01:17:00,37.4,31.5,30.10,North,-999,-999.0,-999.0,79,-99.99,,,-99.99,meteohub,2013-02-03 07:17:00,
2013-02-03 01:22:00,37.8,31.5,30.09,North,-999,-999.0,-999.0,78,-99.99,,,-99.99,meteohub,2013-02-03 07:22:00,
2013-02-03 01:27:00,37.6,31.3,30.10,North,-999,-999.0,-999.0,78,-99.99,,,-99.99,meteohub,2013-02-03 07:27:00,
2013-02-03 01:32:00,37.6,31.3,30.10,North,-999,-999.0,-999.0,78,-99.99,,,-99.99,meteohub,2013-02-03 07:32:00,
2013-02-03 01:37:00,37.4,31.5,30.10,North,-999,-999.0,-999.0,79,-99.99,,,-99.99,meteohub,2013-02-03 07:37:00,
2013-02-03 01:42:00,37.2,31.3,30.10,North,-999,-999.0,-999.0,79,-99.99,,,-99.99,meteohub,2013-02-03 07:42:00,
2013-02-03 01:47:00,37.4,31.5,30.09,North,-999,-999.0,-999.0,79,-99.99,,,-99.99,meteohub,2013-02-03 07:47:00,
2013-02-03 01:52:00,37.6,31.6,30.09,North,-999,-999.0,-999.0,79,-99.99,,,-99.99,meteohub,2013-02-03 07:52:00,
2013-02-03 01:57:00,37.6,31.3,30.09,North,-999,-999.0,-999.0,78,-99.99,,,-99.99,meteohub,2013-02-03 07:57:00,
2013-02-03 02:02:00,37.4,31.1,30.09,North,-999,-999.0,-999.0,78,-99.99,,,-99.99,meteohub,2013-02-03 08:02:00,
2013-02-03 02:07:00,37.4,30.9,30.10,North,-999,-999.0,-999.0,77,-99.99,,,-99.99,meteohub,2013-02-03 08:07:00,
2013-02-03 02:12:00,37.2,30.4,30.10,North,-999,-999.0,-999.0,76,-99.99,,,-99.99,meteohub,2013-02-03 08:12:00,
2013-02-03 02:17:00,37.2,30.4,30.10,North,-999,-999.0,-999.0,76,-99.99,,,-99.99,meteohub,2013-02-03 08:17:00,
2013-02-03 02:22:00,37.4,30.2,30.10,North,-999,-999.0,-999.0,75,-99.99,,,-99.99,meteohub,2013-02-03 08:22:00,
2013-02-03 02:27:00,37.6,30.0,30.10,North,-999,-999.0,-999.0,74,-99.99,,,-99.99,meteohub,2013-02-03 08:27:00,
2013-02-03 02:32:00,37.6,30.0,30.10,North,-999,-999.0,-999.0,74,-99.99,,,-99.99,meteohub,2013-02-03 08:32:00,
2013-02-03 02:37:00,37.8,29.5,30.10,North,-999,-999.0,-999.0,72,-99.99,,,-99.99,meteohub,2013-02-03 08:37:00,
2013-02-03 02:42:00,37.6,29.3,30.11,North,-999,-999.0,-999.0,72,-99.99,,,-99.99,meteohub,2013-02-03 08:42:00,
2013-02-03 02:47:00,37.4,29.1,30.11,North,-999,-999.0,-999.0,72,-99.99,,,-99.99,meteohub,2013-02-03 08:47:00,
2013-02-03 02:52:00,37.0,29.1,30.11,North,-999,-999.0,-999.0,73,-99.99,,,-99.99,meteohub,2013-02-03 08:52:00,
2013-02-03 02:57:00,36.7,29.1,30.11,North,-999,-999.0,-999.0,74,-99.99,,,-99.99,meteohub,2013-02-03 08:57:00,
2013-02-03 03:02:00,36.5,28.9,30.11,North,-999,-999.0,-999.0,74,-99.99,,,-99.99,meteohub,2013-02-03 09:02:00,
2013-02-03 03:07:00,36.7,28.8,30.11,North,-999,-999.0,-999.0,73,-99.99,,,-99.99,meteohub,2013-02-03 09:07:00,
2013-02-03 03:12:00,37.0,28.9,30.11,North,-999,-999.0,-999.0,72,-99.99,,,-99.99,meteohub,2013-02-03 09:12:00,
2013-02-03 03:17:00,37.0,28.6,30.11,North,-999,-999.0,-999.0,71,-99.99,,,-99.99,meteohub,2013-02-03 09:17:00,
2013-02-03 03:22:00,37.0,28.6,30.11,North,-999,-999.0,-999.0,71,-99.99,,,-99.99,meteohub,2013-02-03 09:22:00,
2013-02-03 03:27:00,36.9,28.4,30.11,North,-999,-999.0,-999.0,71,-99.99,,,-99.99,meteohub,2013-02-03 09:27:00,
2013-02-03 03:32:00,36.9,28.4,30.12,North,-999,-999.0,-999.0,71,-99.99,,,-99.99,meteohub,2013-02-03 09:32:00,
2013-02-03 03:37:00,36.5,28.0,30.12,North,-999,-999.0,-999.0,71,-99.99,,,-99.99,meteohub,2013-02-03 09:37:00,
2013-02-03 03:42:00,36.7,28.2,30.11,North,-999,-999.0,-999.0,71,-99.99,,,-99.99,meteohub,2013-02-03 09:42:00,
2013-02-03 03:47:00,36.9,28.0,30.11,North,-999,-999.0,-999.0,70,-99.99,,,-99.99,meteohub,2013-02-03 09:47:00,
2013-02-03 03:52:00,36.9,27.7,30.11,North,-999,-999.0,-999.0,69,-99.99,,,-99.99,meteohub,2013-02-03 09:52:00,
2013-02-03 03:57:00,36.7,27.9,30.11,North,-999,-999.0,-999.0,70,-99.99,,,-99.99,meteohub,2013-02-03 09:57:00,
2013-02-03 04:02:00,36.7,27.9,30.12,North,-999,-999.0,-999.0,70,-99.99,,,-99.99,meteohub,2013-02-03 10:02:00,
2013-02-03 04:07:00,36.5,27.7,30.11,North,-999,-999.0,-999.0,70,-99.99,,,-99.99,meteohub,2013-02-03 10:07:00,
2013-02-03 04:12:00,36.5,27.7,30.12,North,-999,-999.0,-999.0,70,-99.99,,,-99.99,meteohub,2013-02-03 10:12:00,
2013-02-03 04:17:00,36.3,27.9,30.12,North,-999,-999.0,-999.0,71,-99.99,,,-99.99,meteohub,2013-02-03 10:17:00,
2013-02-03 04:22:00,36.1,27.7,30.13,North,-999,-999.0,-999.0,71,-99.99,,,-99.99,meteohub,2013-02-03 10:22:00,
2013-02-03 04:27:00,36.0,27.5,30.13,North,-999,-999.0,-999.0,71,-99.99,,,-99.99,meteohub,2013-02-03 10:27:00,
2013-02-03 04:32:00,36.0,27.5,30.13,North,-999,-999.0,-999.0,71,-99.99,,,-99.99,meteohub,2013-02-03 10:32:00,
2013-02-03 04:37:00,35.8,27.7,30.14,North,-999,-999.0,-999.0,72,-99.99,,,-99.99,meteohub,2013-02-03 10:37:00,
2013-02-03 04:42:00,35.8,27.7,30.14,North,-999,-999.0,-999.0,72,-99.99,,,-99.99,meteohub,2013-02-03 10:42:00,
2013-02-03 04:47:00,35.8,27.7,30.14,North,-999,-999.0,-999.0,72,-99.99,,,-99.99,meteohub,2013-02-03 10:47:00,
2013-02-03 04:52:00,35.6,27.5,30.14,North,-999,-999.0,-999.0,72,-99.99,,,-99.99,meteohub,2013-02-03 10:52:00,
2013-02-03 04:57:00,35.6,27.1,30.14,North,-999,-999.0,-999.0,71,-99.99,,,-99.99,meteohub,2013-02-03 10:57:00,
2013-02-03 05:02:00,35.4,27.3,30.14,North,-999,-999.0,-999.0,72,-99.99,,,-99.99,meteohub,2013-02-03 11:02:00,
2013-02-03 05:07:00,35.2,27.1,30.14,North,-999,-999.0,-999.0,72,-99.99,,,-99.99,meteohub,2013-02-03 11:07:00,
2013-02-03 05:12:00,35.1,27.3,30.15,North,-999,-999.0,-999.0,73,-99.99,,,-99.99,meteohub,2013-02-03 11:12:00,
2013-02-03 05:17:00,34.9,27.1,30.15,North,-999,-999.0,-999.0,73,-99.99,,,-99.99,meteohub,2013-02-03 11:17:00,
2013-02-03 05:22:00,34.7,27.3,30.15,North,-999,-999.0,-999.0,74,-99.99,,,-99.99,meteohub,2013-02-03 11:22:00,
2013-02-03 05:27:00,34.7,27.3,30.15,North,-999,-999.0,-999.0,74,-99.99,,,-99.99,meteohub,2013-02-03 11:27:00,
2013-02-03 05:32:00,34.7,27.3,30.15,North,-999,-999.0,-999.0,74,-99.99,,,-99.99,meteohub,2013-02-03 11:32:00,
2013-02-03 05:37:00,34.5,27.1,30.15,North,-999,-999.0,-999.0,74,-99.99,,,-99.99,meteohub,2013-02-03 11:37:00,
2013-02-03 05:42:00,34.5,26.8,30.15,North,-999,-999.0,-999.0,73,-99.99,,,-99.99,meteohub,2013-02-03 11:42:00,
2013-02-03 05:47:00,34.3,27.0,30.15,North,-999,-999.0,-999.0,74,-99.99,,,-99.99,meteohub,2013-02-03 11:47:00,
2013-02-03 05:52:00,34.2,26.8,30.15,North,-999,-999.0,-999.0,74,-99.99,,,-99.99,meteohub,2013-02-03 11:52:00,
2013-02-03 05:57:00,34.0,26.6,30.15,North,-999,-999.0,-999.0,74,-99.99,,,-99.99,meteohub,2013-02-03 11:57:00,
2013-02-03 06:02:00,33.8,26.8,30.15,North,-999,-999.0,-999.0,75,-99.99,,,-99.99,meteohub,2013-02-03 12:02:00,
2013-02-03 06:07:00,33.8,26.8,30.15,North,-999,-999.0,-999.0,75,-99.99,,,-99.99,meteohub,2013-02-03 12:07:00,
2013-02-03 06:12:00,33.6,26.6,30.15,North,-999,-999.0,-999.0,75,-99.99,,,-99.99,meteohub,2013-02-03 12:12:00,
2013-02-03 06:17:00,33.6,26.6,30.15,North,-999,-999.0,-999.0,75,-99.99,,,-99.99,meteohub,2013-02-03 12:17:00,
2013-02-03 06:22:00,33.4,26.1,30.16,North,-999,-999.0,-999.0,74,-99.99,,,-99.99,meteohub,2013-02-03 12:22:00,
2013-02-03 06:27:00,33.3,26.6,30.16,North,-999,-999.0,-999.0,76,-99.99,,,-99.99,meteohub,2013-02-03 12:27:00,
2013-02-03 06:32:00,33.3,26.6,30.16,North,-999,-999.0,-999.0,76,-99.99,,,-99.99,meteohub,2013-02-03 12:32:00,
2013-02-03 06:37:00,32.9,26.2,30.16,North,-999,-999.0,-999.0,76,-99.99,,,-99.99,meteohub,2013-02-03 12:37:00,
2013-02-03 06:42:00,32.7,26.2,30.16,North,-999,-999.0,-999.0,77,-99.99,,,-99.99,meteohub,2013-02-03 12:42:00,
2013-02-03 06:47:00,32.5,26.4,30.17,North,-999,-999.0,-999.0,78,-99.99,,,-99.99,meteohub,2013-02-03 12:47:00,
2013-02-03 06:52:00,32.2,26.4,30.17,North,-999,-999.0,-999.0,79,-99.99,,,-99.99,meteohub,2013-02-03 12:52:00,
2013-02-03 06:57:00,32.0,26.2,30.17,North,-999,-999.0,-999.0,79,-99.99,,,-99.99,meteohub,2013-02-03 12:57:00,
2013-02-03 07:02:00,32.0,26.2,30.17,North,-999,-999.0,-999.0,79,-99.99,,,-99.99,meteohub,2013-02-03 13:02:00,
2013-02-03 07:07:00,31.8,26.4,30.18,North,-999,-999.0,-999.0,80,-99.99,,,-99.99,meteohub,2013-02-03 13:07:00,
2013-02-03 07:12:00,31.6,26.4,30.18,North,-999,-999.0,-999.0,81,-99.99,,,-99.99,meteohub,2013-02-03 13:12:00,
2013-02-03 07:17:00,31.6,26.4,30.18,North,-999,-999.0,-999.0,81,-99.99,,,-99.99,meteohub,2013-02-03 13:17:00,
2013-02-03 07:22:00,31.5,26.2,30.17,North,-999,-999.0,-999.0,81,-99.99,,,-99.99,meteohub,2013-02-03 13:22:00,
2013-02-03 07:27:00,31.3,26.4,30.18,North,-999,-999.0,-999.0,82,-99.99,,,-99.99,meteohub,2013-02-03 13:27:00,
2013-02-03 07:32:00,31.3,26.4,30.18,North,-999,-999.0,-999.0,82,-99.99,,,-99.99,meteohub,2013-02-03 13:32:00,
2013-02-03 07:37:00,31.8,26.6,30.18,North,-999,-999.0,-999.0,81,-99.99,,,-99.99,meteohub,2013-02-03 13:37:00,
2013-02-03 07:42:00,32.4,27.0,30.19,North,-999,-999.0,-999.0,80,-99.99,,,-99.99,meteohub,2013-02-03 13:42:00,
2013-02-03 07:47:00,33.1,27.3,30.19,North,-999,-999.0,-999.0,79,-99.99,,,-99.99,meteohub,2013-02-03 13:47:00,
2013-02-03 07:52:00,33.4,27.0,30.19,North,-999,-999.0,-999.0,77,-99.99,,,-99.99,meteohub,2013-02-03 13:52:00,
2013-02-03 07:57:00,34.0,27.1,30.19,North,-999,-999.0,-999.0,76,-99.99,,,-99.99,meteohub,2013-02-03 13:57:00,
2013-02-03 08:02:00,34.2,26.8,30.19,North,-999,-999.0,-999.0,74,-99.99,,,-99.99,meteohub,2013-02-03 14:02:00,
2013-02-03 08:07:00,34.7,26.2,30.20,North,-999,-999.0,-999.0,71,-99.99,,,-99.99,meteohub,2013-02-03 14:07:00,
2013-02-03 08:12:00,35.1,26.2,30.20,North,-999,-999.0,-999.0,70,-99.99,,,-99.99,meteohub,2013-02-03 14:12:00,
2013-02-03 08:17:00,35.6,26.8,30.20,North,-999,-999.0,-999.0,70,-99.99,,,-99.99,meteohub,2013-02-03 14:17:00,
2013-02-03 08:22:00,36.0,26.4,30.20,North,-999,-999.0,-999.0,68,-99.99,,,-99.99,meteohub,2013-02-03 14:22:00,
2013-02-03 08:27:00,36.5,26.2,30.20,North,-999,-999.0,-999.0,66,-99.99,,,-99.99,meteohub,2013-02-03 14:27:00,
2013-02-03 08:32:00,36.5,26.2,30.21,North,-999,-999.0,-999.0,66,-99.99,,,-99.99,meteohub,2013-02-03 14:32:00,
2013-02-03 08:37:00,37.0,26.4,30.21,North,-999,-999.0,-999.0,65,-99.99,,,-99.99,meteohub,2013-02-03 14:37:00,
2013-02-03 08:42:00,37.2,26.2,30.22,North,-999,-999.0,-999.0,64,-99.99,,,-99.99,meteohub,2013-02-03 14:42:00,
2013-02-03 08:47:00,37.4,25.5,30.22,North,-999,-999.0,-999.0,62,-99.99,,,-99.99,meteohub,2013-02-03 14:47:00,
2013-02-03 08:52:00,37.6,25.7,30.22,North,-999,-999.0,-999.0,62,-99.99,,,-99.99,meteohub,2013-02-03 14:52:00,
2013-02-03 08:57:00,37.9,24.4,30.21,North,-999,-999.0,-999.0,58,-99.99,,,-99.99,meteohub,2013-02-03 14:57:00,
2013-02-03 09:02:00,38.1,23.4,30.22,North,-999,-999.0,-999.0,55,-99.99,,,-99.99,meteohub,2013-02-03 15:02:00,
2013-02-03 09:07:00,38.7,23.9,30.21,North,-999,-999.0,-999.0,55,-99.99,,,-99.99,meteohub,2013-02-03 15:07:00,
2013-02-03 09:12:00,38.5,21.0,30.22,North,-999,-999.0,-999.0,49,-99.99,,,-99.99,meteohub,2013-02-03 15:12:00,
2013-02-03 09:17:00,38.5,21.0,30.22,North,-999,-999.0,-999.0,49,-99.99,,,-99.99,meteohub,2013-02-03 15:17:00,
2013-02-03 09:22:00,38.7,19.6,30.21,North,-999,-999.0,-999.0,46,-99.99,,,-99.99,meteohub,2013-02-03 15:22:00,
2013-02-03 09:27:00,39.2,19.0,30.21,North,-999,-999.0,-999.0,44,-99.99,,,-99.99,meteohub,2013-02-03 15:27:00,
2013-02-03 09:32:00,39.2,19.0,30.21,North,-999,-999.0,-999.0,44,-99.99,,,-99.99,meteohub,2013-02-03 15:32:00,
2013-02-03 09:37:00,40.3,18.5,30.21,North,-999,-999.0,-999.0,41,-99.99,,,-99.99,meteohub,2013-02-03 15:37:00,
2013-02-03 09:42:00,41.2,18.7,30.21,North,-999,-999.0,-999.0,40,-99.99,,,-99.99,meteohub,2013-02-03 15:42:00,
2013-02-03 09:47:00,41.2,18.1,30.20,North,-999,-999.0,-999.0,39,-99.99,,,-99.99,meteohub,2013-02-03 15:47:00,
2013-02-03 09:52:00,41.0,18.0,30.20,North,-999,-999.0,-999.0,39,-99.99,,,-99.99,meteohub,2013-02-03 15:52:00,
2013-02-03 09:57:00,42.6,18.9,30.20,North,-999,-999.0,-999.0,38,-99.99,,,-99.99,meteohub,2013-02-03 15:57:00,
2013-02-03 10:02:00,42.8,17.1,30.20,North,-999,-999.0,-999.0,35,-99.99,,,-99.99,meteohub,2013-02-03 16:02:00,
2013-02-03 10:07:00,43.3,16.9,30.20,North,-999,-999.0,-999.0,34,-99.99,,,-99.99,meteohub,2013-02-03 16:07:00,
2013-02-03 10:12:00,43.7,15.8,30.20,North,-999,-999.0,-999.0,32,-99.99,,,-99.99,meteohub,2013-02-03 16:12:00,
2013-02-03 10:17:00,44.1,14.5,30.19,North,-999,-999.0,-999.0,30,-99.99,,,-99.99,meteohub,2013-02-03 16:17:00,
2013-02-03 10:22:00,43.7,14.4,30.19,North,-999,-999.0,-999.0,30,-99.99,,,-99.99,meteohub,2013-02-03 16:22:00,
2013-02-03 10:27:00,44.2,14.7,30.19,North,-999,-999.0,-999.0,30,-99.99,,,-99.99,meteohub,2013-02-03 16:27:00,
2013-02-03 10:32:00,44.2,14.7,30.19,North,-999,-999.0,-999.0,30,-99.99,,,-99.99,meteohub,2013-02-03 16:32:00,
2013-02-03 10:37:00,45.1,14.0,30.19,North,-999,-999.0,-999.0,28,-99.99,,,-99.99,meteohub,2013-02-03 16:37:00,
2013-02-03 10:42:00,45.5,13.5,30.18,North,-999,-999.0,-999.0,27,-99.99,,,-99.99,meteohub,2013-02-03 16:42:00,
2013-02-03 10:47:00,46.6,14.4,30.19,North,-999,-999.0,-999.0,27,-99.99,,,-99.99,meteohub,2013-02-03 16:47:00,
2013-02-03 10:52:00,46.2,13.3,30.19,North,-999,-999.0,-999.0,26,-99.99,,,-99.99,meteohub,2013-02-03 16:52:00,
2013-02-03 10:57:00,47.1,14.9,30.19,North,-999,-999.0,-999.0,27,-99.99,,,-99.99,meteohub,2013-02-03 16:57:00,
2013-02-03 11:02:00,48.0,12.0,30.19,North,-999,-999.0,-999.0,23,-99.99,,,-99.99,meteohub,2013-02-03 17:02:00,
2013-02-03 11:07:00,47.7,12.6,30.19,North,-999,-999.0,-999.0,24,-99.99,,,-99.99,meteohub,2013-02-03 17:07:00,
2013-02-03 11:12:00,48.9,15.4,30.18,North,-999,-999.0,-999.0,26,-99.99,,,-99.99,meteohub,2013-02-03 17:12:00,
2013-02-03 11:17:00,50.4,12.9,30.18,North,-999,-999.0,-999.0,22,-99.99,,,-99.99,meteohub,2013-02-03 17:17:00,
2013-02-03 11:22:00,50.0,14.5,30.18,North,-999,-999.0,-999.0,24,-99.99,,,-99.99,meteohub,2013-02-03 17:22:00,
2013-02-03 11:27:00,51.1,13.5,30.18,North,-999,-999.0,-999.0,22,-99.99,,,-99.99,meteohub,2013-02-03 17:27:00,
2013-02-03 11:33:00,51.1,13.5,30.17,North,-999,-999.0,-999.0,22,-99.99,,,-99.99,meteohub,2013-02-03 17:33:00,
2013-02-03 11:39:00,46.9,13.8,30.16,North,-999,-999.0,-999.0,26,-99.99,,,-99.99,meteohub,2013-02-03 17:39:00,
2013-02-03 11:45:00,46.4,13.3,30.16,North,-999,-999.0,-999.0,26,-99.99,,,-99.99,meteohub,2013-02-03 17:45:00,
2013-02-03 11:51:00,45.5,13.5,30.15,North,-999,-999.0,-999.0,27,-99.99,,,-99.99,meteohub,2013-02-03 17:51:00,
2013-02-03 11:57:00,44.8,15.3,30.15,North,-999,-999.0,-999.0,30,-99.99,,,-99.99,meteohub,2013-02-03 17:57:00,
2013-02-03 12:02:00,44.8,14.5,30.14,North,-999,-999.0,-999.0,29,-99.99,,,-99.99,meteohub,2013-02-03 18:02:00,
2013-02-03 12:07:00,44.2,14.0,30.13,North,-999,-999.0,-999.0,29,-99.99,,,-99.99,meteohub,2013-02-03 18:07:00,
2013-02-03 12:12:00,44.4,15.6,30.12,North,-999,-999.0,-999.0,31,-99.99,,,-99.99,meteohub,2013-02-03 18:12:00,
2013-02-03 12:17:00,45.1,16.3,30.12,North,-999,-999.0,-999.0,31,-99.99,,,-99.99,meteohub,2013-02-03 18:17:00,
2013-02-03 12:22:00,45.5,15.1,30.12,North,-999,-999.0,-999.0,29,-99.99,,,-99.99,meteohub,2013-02-03 18:22:00,
2013-02-03 12:27:00,45.7,15.3,30.11,North,-999,-999.0,-999.0,29,-99.99,,,-99.99,meteohub,2013-02-03 18:27:00,
2013-02-03 12:32:00,45.7,15.3,30.11,North,-999,-999.0,-999.0,29,-99.99,,,-99.99,meteohub,2013-02-03 18:32:00,
2013-02-03 12:37:00,45.3,16.5,30.11,North,-999,-999.0,-999.0,31,-99.99,,,-99.99,meteohub,2013-02-03 18:37:00,
2013-02-03 12:42:00,46.0,17.8,30.09,North,-999,-999.0,-999.0,32,-99.99,,,-99.99,meteohub,2013-02-03 18:42:00,
2013-02-03 12:47:00,46.0,17.1,30.09,North,-999,-999.0,-999.0,31,-99.99,,,-99.99,meteohub,2013-02-03 18:47:00,
2013-02-03 12:52:00,46.6,17.6,30.09,North,-999,-999.0,-999.0,31,-99.99,,,-99.99,meteohub,2013-02-03 18:52:00,
2013-02-03 12:57:00,47.8,16.3,30.10,North,-999,-999.0,-999.0,28,-99.99,,,-99.99,meteohub,2013-02-03 18:57:00,
2013-02-03 13:02:00,49.1,16.5,30.10,North,-999,-999.0,-999.0,27,-99.99,,,-99.99,meteohub,2013-02-03 19:02:00,
2013-02-03 13:07:00,49.1,18.1,30.09,North,-999,-999.0,-999.0,29,-99.99,,,-99.99,meteohub,2013-02-03 19:07:00,
2013-02-03 13:12:00,49.6,15.3,30.10,North,-999,-999.0,-999.0,25,-99.99,,,-99.99,meteohub,2013-02-03 19:12:00,
2013-02-03 13:17:00,49.5,14.2,30.10,North,-999,-999.0,-999.0,24,-99.99,,,-99.99,meteohub,2013-02-03 19:17:00,
2013-02-03 13:22:00,50.7,18.0,30.09,North,-999,-999.0,-999.0,27,-99.99,,,-99.99,meteohub,2013-02-03 19:22:00,
2013-02-03 13:27:00,51.3,15.6,30.09,North,-999,-999.0,-999.0,24,-99.99,,,-99.99,meteohub,2013-02-03 19:27:00,
2013-02-03 13:32:00,51.3,15.6,30.09,North,-999,-999.0,-999.0,24,-99.99,,,-99.99,meteohub,2013-02-03 19:32:00,
2013-02-03 13:37:00,51.6,17.8,30.09,North,-999,-999.0,-999.0,26,-99.99,,,-99.99,meteohub,2013-02-03 19:37:00,
2013-02-03 13:42:00,52.5,16.7,30.08,North,-999,-999.0,-999.0,24,-99.99,,,-99.99,meteohub,2013-02-03 19:42:00,
2013-02-03 13:47:00,51.6,14.0,30.08,North,-999,-999.0,-999.0,22,-99.99,,,-99.99,meteohub,2013-02-03 19:47:00,
2013-02-03 13:52:00,51.8,15.1,30.07,North,-999,-999.0,-999.0,23,-99.99,,,-99.99,meteohub,2013-02-03 19:52:00,
2013-02-03 13:57:00,52.0,13.3,30.07,North,-999,-999.0,-999.0,21,-99.99,,,-99.99,meteohub,2013-02-03 19:57:00,
2013-02-03 14:02:00,51.6,14.0,30.07,North,-999,-999.0,-999.0,22,-99.99,,,-99.99,meteohub,2013-02-03 20:02:00,
2013-02-03 14:07:00,51.8,16.2,30.06,North,-999,-999.0,-999.0,24,-99.99,,,-99.99,meteohub,2013-02-03 20:07:00,
2013-02-03 14:12:00,51.8,14.2,30.06,North,-999,-999.0,-999.0,22,-99.99,,,-99.99,meteohub,2013-02-03 20:12:00,
2013-02-03 14:17:00,52.3,15.6,30.05,North,-999,-999.0,-999.0,23,-99.99,,,-99.99,meteohub,2013-02-03 20:17:00,
2013-02-03 14:22:00,52.9,15.1,30.06,North,-999,-999.0,-999.0,22,-99.99,,,-99.99,meteohub,2013-02-03 20:22:00,
2013-02-03 14:27:00,52.9,15.1,30.05,North,-999,-999.0,-999.0,22,-99.99,,,-99.99,meteohub,2013-02-03 20:27:00,
2013-02-03 14:32:00,52.9,15.1,30.05,North,-999,-999.0,-999.0,22,-99.99,,,-99.99,meteohub,2013-02-03 20:32:00,
2013-02-03 14:37:00,52.9,15.1,30.04,North,-999,-999.0,-999.0,22,-99.99,,,-99.99,meteohub,2013-02-03 20:37:00,
2013-02-03 14:43:00,53.2,16.3,30.04,North,-999,-999.0,-999.0,23,-99.99,,,-99.99,meteohub,2013-02-03 20:43:00,
2013-02-03 14:49:00,53.2,15.4,30.04,North,-999,-999.0,-999.0,22,-99.99,,,-99.99,meteohub,2013-02-03 20:49:00,
2013-02-03 14:55:00,53.8,15.8,30.04,North,-999,-999.0,-999.0,22,-99.99,,,-99.99,meteohub,2013-02-03 20:55:00,
2013-02-03 15:01:00,52.9,17.1,30.04,North,-999,-999.0,-999.0,24,-99.99,,,-99.99,meteohub,2013-02-03 21:01:00,
2013-02-03 15:07:00,53.4,15.4,30.03,North,-999,-999.0,-999.0,22,-99.99,,,-99.99,meteohub,2013-02-03 21:07:00,
2013-02-03 15:12:00,54.0,16.0,30.03,North,-999,-999.0,-999.0,22,-99.99,,,-99.99,meteohub,2013-02-03 21:12:00,
2013-02-03 15:17:00,54.7,16.5,30.03,North,-999,-999.0,-999.0,22,-99.99,,,-99.99,meteohub,2013-02-03 21:17:00,
2013-02-03 15:22:00,54.7,14.4,30.02,North,-999,-999.0,-999.0,20,-99.99,,,-99.99,meteohub,2013-02-03 21:22:00,
2013-02-03 15:27:00,54.1,15.1,30.01,North,-999,-999.0,-999.0,21,-99.99,,,-99.99,meteohub,2013-02-03 21:27:00,
2013-02-03 15:32:00,54.1,15.1,30.01,North,-999,-999.0,-999.0,21,-99.99,,,-99.99,meteohub,2013-02-03 21:32:00,
2013-02-03 15:37:00,53.4,16.5,30.01,North,-999,-999.0,-999.0,23,-99.99,,,-99.99,meteohub,2013-02-03 21:37:00,
2013-02-03 15:42:00,54.0,16.0,30.01,North,-999,-999.0,-999.0,22,-99.99,,,-99.99,meteohub,2013-02-03 21:42:00,
2013-02-03 15:47:00,54.7,16.5,30.00,North,-999,-999.0,-999.0,22,-99.99,,,-99.99,meteohub,2013-02-03 21:47:00,
2013-02-03 15:52:00,54.1,16.2,30.00,North,-999,-999.0,-999.0,22,-99.99,,,-99.99,meteohub,2013-02-03 21:52:00,
2013-02-03 15:57:00,52.0,17.2,29.99,North,-999,-999.0,-999.0,25,-99.99,,,-99.99,meteohub,2013-02-03 21:57:00,
2013-02-03 16:02:00,50.4,17.6,29.99,North,-999,-999.0,-999.0,27,-99.99,,,-99.99,meteohub,2013-02-03 22:02:00,
2013-02-03 16:07:00,49.6,18.7,29.99,North,-999,-999.0,-999.0,29,-99.99,,,-99.99,meteohub,2013-02-03 22:07:00,
2013-02-03 16:12:00,49.3,19.2,29.99,North,-999,-999.0,-999.0,30,-99.99,,,-99.99,meteohub,2013-02-03 22:12:00,
2013-02-03 16:17:00,48.9,20.3,29.99,North,-999,-999.0,-999.0,32,-99.99,,,-99.99,meteohub,2013-02-03 22:17:00,
2013-02-03 16:22:00,48.7,20.8,29.98,North,-999,-999.0,-999.0,33,-99.99,,,-99.99,meteohub,2013-02-03 22:22:00,
2013-02-03 16:27:00,48.4,20.7,29.98,North,-999,-999.0,-999.0,33,-99.99,,,-99.99,meteohub,2013-02-03 22:27:00,
2013-02-03 16:32:00,48.4,20.7,29.98,North,-999,-999.0,-999.0,33,-99.99,,,-99.99,meteohub,2013-02-03 22:32:00,
2013-02-03 16:37:00,48.2,21.7,29.97,North,-999,-999.0,-999.0,35,-99.99,,,-99.99,meteohub,2013-02-03 22:37:00,
2013-02-03 16:42:00,48.2,22.5,29.97,North,-999,-999.0,-999.0,36,-99.99,,,-99.99,meteohub,2013-02-03 22:42:00,
2013-02-03 16:47:00,48.0,22.3,29.97,North,-999,-999.0,-999.0,36,-99.99,,,-99.99,meteohub,2013-02-03 22:47:00,
2013-02-03 16:52:00,47.8,22.1,29.96,North,-999,-999.0,-999.0,36,-99.99,,,-99.99,meteohub,2013-02-03 22:52:00,
2013-02-03 16:57:00,47.5,21.9,29.96,North,-999,-999.0,-999.0,36,-99.99,,,-99.99,meteohub,2013-02-03 22:57:00,
2013-02-03 17:02:00,47.5,22.5,29.96,North,-999,-999.0,-999.0,37,-99.99,,,-99.99,meteohub,2013-02-03 23:02:00,
2013-02-03 17:07:00,47.1,23.4,29.95,North,-999,-999.0,-999.0,39,-99.99,,,-99.99,meteohub,2013-02-03 23:07:00,
2013-02-03 17:12:00,46.9,23.9,29.95,North,-999,-999.0,-999.0,40,-99.99,,,-99.99,meteohub,2013-02-03 23:12:00,
2013-02-03 17:17:00,46.8,24.3,29.95,North,-999,-999.0,-999.0,41,-99.99,,,-99.99,meteohub,2013-02-03 23:17:00,
2013-02-03 17:22:00,46.4,24.6,29.95,North,-999,-999.0,-999.0,42,-99.99,,,-99.99,meteohub,2013-02-03 23:22:00,
2013-02-03 17:27:00,46.0,24.3,29.95,North,-999,-999.0,-999.0,42,-99.99,,,-99.99,meteohub,2013-02-03 23:27:00,
2013-02-03 17:32:00,46.0,24.3,29.95,North,-999,-999.0,-999.0,42,-99.99,,,-99.99,meteohub,2013-02-03 23:32:00,
2013-02-03 17:37:00,45.3,24.1,29.95,North,-999,-999.0,-999.0,43,-99.99,,,-99.99,meteohub,2013-02-03 23:37:00,
2013-02-03 17:42:00,45.0,23.7,29.95,North,-999,-999.0,-999.0,43,-99.99,,,-99.99,meteohub,2013-02-03 23:42:00,
2013-02-03 17:47:00,44.6,24.6,29.95,North,-999,-999.0,-999.0,45,-99.99,,,-99.99,meteohub,2013-02-03 23:47:00,
2013-02-03 17:53:00,43.5,24.6,29.95,North,-999,-999.0,-999.0,47,-99.99,,,-99.99,meteohub,2013-02-03 23:53:00,
2013-02-03 17:59:00,43.0,24.6,29.94,North,-999,-999.0,-999.0,48,-99.99,,,-99.99,meteohub,2013-02-03 23:59:00,
2013-02-03 18:05:00,43.0,25.2,29.94,North,-999,-999.0,-999.0,49,-99.99,,,-99.99,meteohub,2013-02-04 00:05:00,
2013-02-03 18:11:00,43.0,25.2,29.94,North,-999,-999.0,-999.0,49,-99.99,,,-99.99,meteohub,2013-02-04 00:11:00,
2013-02-03 18:17:00,43.0,25.2,29.94,North,-999,-999.0,-999.0,49,-99.99,,,-99.99,meteohub,2013-02-04 00:17:00,
2013-02-03 18:22:00,43.0,25.2,29.94,North,-999,-999.0,-999.0,49,-99.99,,,-99.99,meteohub,2013-02-04 00:22:00,
2013-02-03 18:27:00,43.0,25.7,29.93,North,-999,-999.0,-999.0,50,-99.99,,,-99.99,meteohub,2013-02-04 00:27:00,
2013-02-03 18:32:00,43.0,25.7,29.94,North,-999,-999.0,-999.0,50,-99.99,,,-99.99,meteohub,2013-02-04 00:32:00,
2013-02-03 18:37:00,42.4,26.1,29.94,North,-999,-999.0,-999.0,52,-99.99,,,-99.99,meteohub,2013-02-04 00:37:00,
2013-02-03 18:42:00,42.3,26.8,29.94,North,-999,-999.0,-999.0,54,-99.99,,,-99.99,meteohub,2013-02-04 00:42:00,
2013-02-03 18:47:00,42.1,26.6,29.94,North,-999,-999.0,-999.0,54,-99.99,,,-99.99,meteohub,2013-02-04 00:47:00,
2013-02-03 18:52:00,42.3,26.4,29.94,North,-999,-999.0,-999.0,53,-99.99,,,-99.99,meteohub,2013-02-04 00:52:00,
2013-02-03 18:57:00,42.1,26.6,29.93,North,-999,-999.0,-999.0,54,-99.99,,,-99.99,meteohub,2013-02-04 00:57:00,
2013-02-03 19:02:00,42.1,26.6,29.93,North,-999,-999.0,-999.0,54,-99.99,,,-99.99,meteohub,2013-02-04 01:02:00,
2013-02-03 19:07:00,42.1,26.6,29.92,North,-999,-999.0,-999.0,54,-99.99,,,-99.99,meteohub,2013-02-04 01:07:00,
2013-02-03 19:12:00,42.1,26.6,29.92,North,-999,-999.0,-999.0,54,-99.99,,,-99.99,meteohub,2013-02-04 01:12:00,
2013-02-03 19:17:00,42.1,26.6,29.92,North,-999,-999.0,-999.0,54,-99.99,,,-99.99,meteohub,2013-02-04 01:17:00,
2013-02-03 19:22:00,41.9,27.0,29.92,North,-999,-999.0,-999.0,55,-99.99,,,-99.99,meteohub,2013-02-04 01:22:00,
2013-02-03 19:27:00,41.7,27.1,29.91,North,-999,-999.0,-999.0,56,-99.99,,,-99.99,meteohub,2013-02-04 01:27:00,
2013-02-03 19:32:00,41.7,27.1,29.91,North,-999,-999.0,-999.0,56,-99.99,,,-99.99,meteohub,2013-02-04 01:32:00,
2013-02-03 19:37:00,41.5,27.0,29.91,North,-999,-999.0,-999.0,56,-99.99,,,-99.99,meteohub,2013-02-04 01:37:00,
2013-02-03 19:42:00,41.5,27.0,29.91,North,-999,-999.0,-999.0,56,-99.99,,,-99.99,meteohub,2013-02-04 01:42:00,
2013-02-03 19:47:00,41.4,27.3,29.90,North,-999,-999.0,-999.0,57,-99.99,,,-99.99,meteohub,2013-02-04 01:47:00,
2013-02-03 19:54:00,41.4,27.3,29.90,North,-999,-999.0,-999.0,57,-99.99,,,-99.99,meteohub,2013-02-04 01:54:00,
2013-02-03 20:00:00,41.4,27.7,29.89,North,-999,-999.0,-999.0,58,-99.99,,,-99.99,meteohub,2013-02-04 02:00:00,
2013-02-03 20:06:00,41.5,27.5,29.89,North,-999,-999.0,-999.0,57,-99.99,,,-99.99,meteohub,2013-02-04 02:06:00,
2013-02-03 20:12:00,41.5,27.5,29.89,North,-999,-999.0,-999.0,57,-99.99,,,-99.99,meteohub,2013-02-04 02:12:00,
2013-02-03 20:17:00,41.5,27.5,29.89,North,-999,-999.0,-999.0,57,-99.99,,,-99.99,meteohub,2013-02-04 02:17:00,
2013-02-03 20:22:00,41.5,27.5,29.88,North,-999,-999.0,-999.0,57,-99.99,,,-99.99,meteohub,2013-02-04 02:22:00,
2013-02-03 20:27:00,41.5,27.5,29.88,North,-999,-999.0,-999.0,57,-99.99,,,-99.99,meteohub,2013-02-04 02:27:00,
2013-02-03 20:32:00,41.5,27.5,29.88,North,-999,-999.0,-999.0,57,-99.99,,,-99.99,meteohub,2013-02-04 02:32:00,
2013-02-03 20:37:00,41.4,27.7,29.88,North,-999,-999.0,-999.0,58,-99.99,,,-99.99,meteohub,2013-02-04 02:37:00,
2013-02-03 20:42:00,41.4,27.7,29.87,North,-999,-999.0,-999.0,58,-99.99,,,-99.99,meteohub,2013-02-04 02:42:00,
2013-02-03 20:47:00,41.4,27.7,29.87,North,-999,-999.0,-999.0,58,-99.99,,,-99.99,meteohub,2013-02-04 02:47:00,
2013-02-03 20:52:00,41.5,27.5,29.87,North,-999,-999.0,-999.0,57,-99.99,,,-99.99,meteohub,2013-02-04 02:52:00,
2013-02-03 20:57:00,41.7,27.1,29.87,North,-999,-999.0,-999.0,56,-99.99,,,-99.99,meteohub,2013-02-04 02:57:00,
2013-02-03 21:02:00,41.7,27.7,29.86,North,-999,-999.0,-999.0,57,-99.99,,,-99.99,meteohub,2013-02-04 03:02:00,
2013-02-03 21:07:00,41.7,27.7,29.86,North,-999,-999.0,-999.0,57,-99.99,,,-99.99,meteohub,2013-02-04 03:07:00,
2013-02-03 21:12:00,41.7,27.7,29.86,North,-999,-999.0,-999.0,57,-99.99,,,-99.99,meteohub,2013-02-04 03:12:00,
2013-02-03 21:18:00,41.7,27.7,29.86,North,-999,-999.0,-999.0,57,-99.99,,,-99.99,meteohub,2013-02-04 03:18:00,
2013-02-03 21:24:00,41.5,27.5,29.86,North,-999,-999.0,-999.0,57,-99.99,,,-99.99,meteohub,2013-02-04 03:24:00,
2013-02-03 21:30:00,41.5,27.5,29.86,North,-999,-999.0,-999.0,57,-99.99,,,-99.99,meteohub,2013-02-04 03:30:00,
2013-02-03 21:36:00,41.4,27.7,29.86,North,-999,-999.0,-999.0,58,-99.99,,,-99.99,meteohub,2013-02-04 03:36:00,
2013-02-03 21:42:00,41.2,27.5,29.86,North,-999,-999.0,-999.0,58,-99.99,,,-99.99,meteohub,2013-02-04 03:42:00,
2013-02-03 21:47:00,40.8,27.7,29.85,North,-999,-999.0,-999.0,59,-99.99,,,-99.99,meteohub,2013-02-04 03:47:00,
2013-02-03 21:52:00,40.8,27.7,29.85,North,-999,-999.0,-999.0,59,-99.99,,,-99.99,meteohub,2013-02-04 03:52:00,
2013-02-03 21:57:00,40.6,27.5,29.85,North,-999,-999.0,-999.0,59,-99.99,,,-99.99,meteohub,2013-02-04 03:57:00,
2013-02-03 22:02:00,40.6,27.9,29.85,North,-999,-999.0,-999.0,60,-99.99,,,-99.99,meteohub,2013-02-04 04:02:00,
2013-02-03 22:07:00,40.6,27.9,29.85,North,-999,-999.0,-999.0,60,-99.99,,,-99.99,meteohub,2013-02-04 04:07:00,
2013-02-03 22:12:00,40.6,27.9,29.84,North,-999,-999.0,-999.0,60,-99.99,,,-99.99,meteohub,2013-02-04 04:12:00,
2013-02-03 22:17:00,40.5,27.7,29.84,North,-999,-999.0,-999.0,60,-99.99,,,-99.99,meteohub,2013-02-04 04:17:00,
2013-02-03 22:22:00,40.5,27.7,29.84,North,-999,-999.0,-999.0,60,-99.99,,,-99.99,meteohub,2013-02-04 04:22:00,
2013-02-03 22:27:00,40.6,27.9,29.84,North,-999,-999.0,-999.0,60,-99.99,,,-99.99,meteohub,2013-02-04 04:27:00,
2013-02-03 22:32:00,40.6,27.9,29.83,North,-999,-999.0,-999.0,60,-99.99,,,-99.99,meteohub,2013-02-04 04:32:00,
2013-02-03 22:37:00,40.5,27.7,29.84,North,-999,-999.0,-999.0,60,-99.99,,,-99.99,meteohub,2013-02-04 04:37:00,
2013-02-03 22:42:00,40.5,27.7,29.83,North,-999,-999.0,-999.0,60,-99.99,,,-99.99,meteohub,2013-02-04 04:42:00,
2013-02-03 22:47:00,40.5,27.7,29.83,North,-999,-999.0,-999.0,60,-99.99,,,-99.99,meteohub,2013-02-04 04:47:00,
2013-02-03 22:52:00,40.6,27.9,29.83,North,-999,-999.0,-999.0,60,-99.99,,,-99.99,meteohub,2013-02-04 04:52:00,
2013-02-03 22:57:00,40.6,27.9,29.82,North,-999,-999.0,-999.0,60,-99.99,,,-99.99,meteohub,2013-02-04 04:57:00,
2013-02-03 23:01:00,40.6,27.9,29.82,North,-999,-999.0,-999.0,60,-99.99,,,-99.99,meteohub,2013-02-04 05:01:00,
2013-02-03 23:04:00,40.6,27.9,29.81,North,-999,-999.0,-999.0,60,-99.99,,,-99.99,meteohub,2013-02-04 05:04:00,
2013-02-03 23:10:00,40.8,28.0,29.81,North,-999,-999.0,-999.0,60,-99.99,,,-99.99,meteohub,2013-02-04 05:10:00,
2013-02-03 23:16:00,41.0,28.2,29.81,North,-999,-999.0,-999.0,60,-99.99,,,-99.99,meteohub,2013-02-04 05:16:00,
2013-02-03 23:19:00,41.0,27.9,29.81,North,-999,-999.0,-999.0,59,-99.99,,,-99.99,meteohub,2013-02-04 05:19:00,
2013-02-03 23:25:00,41.4,28.0,29.81,North,-999,-999.0,-999.0,59,-99.99,,,-99.99,meteohub,2013-02-04 05:25:00,
2013-02-03 23:27:00,41.4,27.7,29.81,North,-999,-999.0,-999.0,58,-99.99,,,-99.99,meteohub,2013-02-04 05:27:00,
2013-02-03 23:32:00,41.4,27.7,29.81,North,-999,-999.0,-999.0,58,-99.99,,,-99.99,meteohub,2013-02-04 05:32:00,
2013-02-03 23:37:00,41.9,27.9,29.81,North,-999,-999.0,-999.0,57,-99.99,,,-99.99,meteohub,2013-02-04 05:37:00,
2013-02-03 23:42:00,42.1,27.5,29.80,North,-999,-999.0,-999.0,56,-99.99,,,-99.99,meteohub,2013-02-04 05:42:00,
2013-02-03 23:47:00,42.4,27.5,29.80,North,-999,-999.0,-999.0,55,-99.99,,,-99.99,meteohub,2013-02-04 05:47:00,
2013-02-03 23:52:00,43.0,27.0,29.79,North,-999,-999.0,-999.0,53,-99.99,,,-99.99,meteohub,2013-02-04 05:52:00,
2013-02-03 23:57:00,43.3,27.3,29.80,North,-999,-999.0,-999.0,53,-99.99,,,-99.99,meteohub,2013-02-04 05:57:00,